Voltar ao catálogo

CENTISPACE-1 S6

AtivoNavegaçãoLEO
NORAD 54021·PAYLOAD·🇨🇳 China

Lançado Oct 7, 2022 de Yellow Sea Launch Area

Loading…

Próximas Passagens (próximas 24 horas)

TLE

AtualizadoSource: Space-Track

Época: Sep 14, 2026, 13:16 UTC

1 54021U 22126B   26257.55291967  .00000343  00000-0  10429-3 0  9990
2 54021  54.9982 217.5991 0011772 271.3270  88.6376 14.62381997210073

Acompanhe CENTISPACE-1 S6 em tempo real com AllMySat

Download on the App Store